Regional Weather Roundup
Issued by NWS

Home | Current Version | Previous Version | Text Only | Print | Product List | Glossary Off
Versions: 1 2 3 4 5 6 7 8 9 10 11 12 13 14 15 16 17 18 19 20 21 22 23 24 25 26 27

000
ASUS43 KDMX 182207
RWRIA

WEATHER ROUNDUP FOR IOWA
NATIONAL WEATHER SERVICE DES MOINES IA
500 PM CDT FRI APR 18 2014

NOTE: "FAIR" INDICATES FEW OR NO CLOUDS BELOW 12,000 FEET WITH NO
SIGNIFICANT WEATHER AND/OR OBSTRUCTIONS TO VISIBILITY.

* - THESE STATIONS ARE NOT NWS STATIONS...THUS NOT UNDER NWS
QUALITY CONTROL.  THEY ALSO DO NOT REPORT WEATHER SUCH
AS PRECIPITATION OR FOG.

IAZ001>003-012>014-020>022-031>034-043>046-182300-
   NORTHWEST IOWA

CITY           SKY/WX    TMP DP  RH WIND       PRES   REMARKS
CARROLL *      SUNNY     66  30  26 SE22      30.14F
CHEROKEE *     SUNNY     66  34  30 S22G31    30.11F
DENISON *      SUNNY     66  30  26 S18G25    30.12F
LE MARS *      SUNNY     68  37  32 S29G35    30.06F
ORANGE CITY *  SUNNY     66  30  26 S20G29    30.07F
SHELDON *      SUNNY     64  34  32 S28G35    30.07F
SIOUX CITY     SUNNY     69  36  29 S26G33    30.07F
SPENCER        SUNNY     64  31  28 S29G37    30.12F
STORM LAKE *   SUNNY     64  32  29 S23G33    30.13F
$$

IAZ055>058-069>071-079>083-090>094-182300-
   SOUTHWEST IOWA

CITY           SKY/WX    TMP DP  RH WIND       PRES   REMARKS
ATLANTIC *     SUNNY     66  32  28 S15G23    30.14F
AUDUBON *      SUNNY     66  14  13 S13G21    30.16F
CLARINDA *     SUNNY     68  34  28 S14G21    30.18S
COUNCIL BLFS * SUNNY     68  39  34 S15G26    30.11F
CRESTON *      SUNNY     64  34  32 SE15G22   30.18F
HARLAN  *      SUNNY     66  32  28 S16G22    30.16F
LAMONI         SUNNY     64  33  31 SE12G20   30.19F
RED OAK *      SUNNY     68  36  30 S16G23    30.15F
SHENANDOAH *   SUNNY     68  37  32 S12G23    30.15F
$$

IAZ047>049-059>061-072>074-084-182300-
   CENTRAL IOWA

CITY           SKY/WX    TMP DP  RH WIND       PRES   REMARKS
AMES           SUNNY     62  29  28 SE12      30.21F
ANKENY *       SUNNY     63  34  34 SE10G18   30.21F
CHARITON *     SUNNY     64  36  34 SE14      30.21F
DES MOINES     MOSUNNY   65  31  28 S14G21    30.21F
GRINNELL*      SUNNY     61  28  29 SE12      30.24S
KNOXVILLE *    SUNNY     64  32  29 SE9G17    30.22S
MARSHALLTOWN   SUNNY     60  30  32 VRB6G18   30.23F
NEWTON *       SUNNY     61  30  31 SE12      30.24S
PELLA *        SUNNY     64  32  29 SE8       30.24F
PERRY *          N/A     64  27  24 SE14      30.18F
$$

IAZ004>006-015-016-023>025-035-036-182300-
   NORTH CENTRAL IOWA

CITY           SKY/WX    TMP DP  RH WIND       PRES   REMARKS
ALGONA *       SUNNY     61  32  33 SE17      30.18F
CLARION *      SUNNY     61  30  31 SE15G24   30.21F
ESTHERVILLE    SUNNY     60  33  36 SE24G35   30.15F
FORT DODGE *   SUNNY     63  34  34 SE15G21   30.20F
MASON CITY     SUNNY     57  30  35 E13       30.24F
FOREST CITY *  SUNNY     59  32  36 SE15G23   30.21F
IOWA FALLS *     N/A     61  32  33 SE12G17   30.24F
$$

IAZ007>011-017>019-026>030-037>042-050>054-066-182300-
   NORTHEAST IOWA

CITY           SKY/WX    TMP DP  RH WIND       PRES   REMARKS
CEDAR RAPIDS   SUNNY     60  24  25 SE8       30.25F
CHARLES CITY * SUNNY     57  28  33 SE7G15    30.26S
CLINTON *      SUNNY     61  28  29 SE5       30.31F
DECORAH *      SUNNY     55  28  35 E12       30.27F
DUBUQUE        SUNNY     57  28  33 VRB3      30.29F
MONTICELLO *   SUNNY     61  30  31 VRB3      30.27F
OELWEIN *      SUNNY    N/A N/A N/A SE8G15    30.27F
WATERLOO       SUNNY     59  27  29 E7G17     30.25F
$$

IAZ064-065-067-068-078-182300-
   EAST CENTRAL IOWA

CITY           SKY/WX    TMP DP  RH WIND       PRES   REMARKS
DAVENPORT      SUNNY     62  27  26 SE6       30.28F
IOWA CITY      SUNNY     62  29  28 SE8       30.27F
MT. PLEASANT * SUNNY     66  25  20 CALM      30.25F
MUSCATINE *    SUNNY     63  30  29 S7        30.26F
QUAD CITIES    SUNNY     63  28  26 N6        30.27F
$$

IAZ062-063-075>077-085>089-095>099-182300-
   SOUTHEAST IOWA

CITY           SKY/WX    TMP DP  RH WIND       PRES   REMARKS
BURLINGTON     SUNNY     63  29  27 CALM      30.25F
FAIRFIELD *    SUNNY     63  30  29 SE8       30.25F
FORT MADISON * SUNNY     63  30  29 CALM      30.26F
KEOKUK *       SUNNY     64  30  27 VRB3      30.24F
OSKALOOSA *      N/A     64  30  27 SE6       30.24F
CENTERVILLE *  SUNNY     64  36  34 E8        30.24F
OTTUMWA        SUNNY     64  28  25 SE8       30.23F
WASHINGTON *   SUNNY     63  25  23 SE9       30.26F
$$

ABBREVIATIONS USED IN REMARKS
   TC - TEMPERATURES IN CELSIUS
  WCI - WIND CHILL INDEX
   HX - HEAT INDEX
  VSB - VISIBILITY
$$




USA.gov is the U.S. government's official web portal to all federal, state and local government web resources and services.